Location: Cz?stochówka
(50.8142°N, 19.0915°E)
Time: 11:10:11
(UTC+00:00)

Cosmos 2084 - Pass Details

Date: 13 January 2026
Orbit: 535 x 565 km, 62.8° (Epoch: 11 February)

Event Time Altitude Azimuth Distance (km) Brightness Sun altitude
Exits shadow 04:50:50 17° 229° (SW) 1,469 5.2 -16.7°
Maximum altitude 04:54:03 81° 314° (NW) 571 3.2 -16.2°
Drops below altitude 10° 04:58:13 10° 44° (NE) 1,843 6.4 -15.6°
Sets 05:00:26 0° 45° (NE) 2,736 7.3 -15.2°
